Regional Weather Roundup
Issued by NWS Upton, NY

Current Version | Previous Version | Graphics & Text | Print | Product List | Glossary Off
Versions: 1 2 3 4 5 6 7 8 9 10 11 12 13 14 15 16 17 18 19 20 21 22 23 24 25 26 27 28 29 30 31 32 33 34 35 36 37 38 39 40 41 42 43 44 45 46 47 48 49 50

000
ASUS41 KOKX 211905
RWROKX

Regional Weather Roundup
National Weather Service New York NY
300 PM EDT SAT APR 21 2018

Note: "FAIR" indicates few or no clouds below 12,000 feet with no
significant weather and/or obstructions to visibility.

NYZ071-072-176-178-NJZ106-104-212000-
New York City Metro Area

CITY           SKY/WX    TMP DP  RH WIND       PRES   REMARKS
Central Park   FAIR      59  20  22 NW9       30.31F
Bronx Bot Gard   N/A     59  23  25 W13       30.31
Bronx Lehman C   N/A     57  21  24 NW10        N/A
LaGuardia Arpt FAIR      60  22  23 NW12      30.29F
Queens College   N/A     57  23  26 NW12        N/A
Kennedy Intl   FAIR      60  21  22 NW13G23   30.30F
Breezy Point     N/A     55 N/A N/A W8          N/A
Brooklyn Coll    N/A     57  23  26 NW10        N/A
Staten Island    N/A     57  25  28 NW8         N/A
Newark/Liberty PTSUNNY   62  33  33 NW13G20   30.30F
Teterboro      FAIR      60  26  27 NW15G26   30.28F
$$

NYZ177-179-078>081-212000-
Long Island New York

CITY           SKY/WX    TMP DP  RH WIND       PRES   REMARKS
Jones Beach      N/A     54 N/A N/A SW9G17      N/A
Wantagh          N/A     59  23  25 NW15        N/A
Hempstead        N/A     57  25  28 N6        30.31
Matinecock Pt    N/A     54 N/A N/A W5          N/A
Farmingdale    FAIR      58  23  26 NW9       30.29F
MacArthur/ISP  FAIR      59  23  25 W12G17    30.28F
Stony Brook      N/A     55  25  30 W7          N/A
Shirley        FAIR      58  25  28 NW18      30.28F
Mt Sinai Harb    N/A    N/A N/A N/A W8G14       N/A
Westhampton    FAIR      58  20  22 NW17      30.29F
East Hampton   FAIR      55  23  28 NW13G21   30.27F
Southold         N/A     54  30  40 W8          N/A
Montauk          N/A     56  26  31 W10G18    30.27F
$$

NYZ052-065-067-212000-
Hudson Valley

CITY           SKY/WX    TMP DP  RH WIND       PRES   REMARKS
White Plains   FAIR      57  21  24 W14       30.27F
Larchmont Harb   N/A     54 N/A N/A W9G15       N/A
Croton On Huds   N/A     55 N/A N/A SW10        N/A
Somers           N/A     57  23  26 NW7         N/A
Brewster         N/A     57  19  23 NW10G23     N/A
Newburgh       SUNNY     57  23  26 W9G21     30.29F
Montgomery     FAIR      58  23  26 NW12      30.27F
Otisville        N/A     55  25  30 W10G22      N/A
Warwick          N/A     55  25  30 N12         N/A
Suffern          N/A     55  25  30 NW10        N/A
Poughkeepsie   FAIR      59  20  22 NW13G21   30.27F
Albany         FAIR      58  21  24 NW15G23   30.27F
$$

NJZ001-105-106-008-010-013-015-019>022-104-212000-
New Jersey

CITY           SKY/WX    TMP DP  RH WIND       PRES   REMARKS
Newark/Liberty PTSUNNY   62  33  33 NW13G20   30.30F
Teterboro      FAIR      60  26  27 NW15G26   30.28F
Caldwell       FAIR      59  21  23 NW9       30.30F
Somerville     FAIR      60  28  29 VRB3      30.29F
Linden         FAIR      59  26  28 NW6G17    30.30F
Perth Amboy      N/A     55 N/A N/A W6G12       N/A
Sussex         FAIR      59  21  23 W10G16    30.30F
Andover          N/A     58  21  24 N7        30.30F
Trenton        FAIR      59  26  28 W9G17     30.32F
Millville      FAIR      59  25  27 VRB7G17   30.35F
Atlantic City  FAIR      61  26  26 NW10      30.34F
Wrightstown    FAIR      59  26  28 W12G17    30.31
Toms River     FAIR      59  26  28 W8G20     30.33F
Belmar         FAIR      58  25  28 W10G16    30.32F
$$

PAZ047>061-062-071-212000-
Eastern Pennsylvania

CITY           SKY/WX    TMP DP  RH WIND       PRES   REMARKS
Philadelphia   PTSUNNY   58  25  28 CALM      30.35F
Allentown      FAIR      59  23  25 SW7       30.32F
Scranton       FAIR      56  23  27 NW14G21   30.33F
$$

CTZ002-004>006-009-010-012-RIZ004-006-007-MAZ004-011-015-212000-
Southern New England

 In CT

CITY           SKY/WX    TMP DP  RH WIND       PRES   REMARKS
Bradley Intl   FAIR      60  19  20 NW15G22   30.23F
Hartford       FAIR      59  22  24 W9G31     30.24F
Danbury        FAIR      56  19  23 NW12G22   30.27F
Wtrbury/Oxford FAIR      55  22  27 NW8G22    30.26F
Norwalk Harbor   N/A     54 N/A N/A W16         N/A
Bridgeport     FAIR      55  29  36 S15       30.27F
Meriden        FAIR      59  21  23 NW15      30.25F
New Haven      FAIR      59  25  27 W9G17     30.26F
Chester        FAIR      59  19  21 W10G24    30.24F
Groton         FAIR      52  37  56 SW17      30.23F
Willimantic    FAIR      59  23  25 NW9       30.23F

 In RI

CITY           SKY/WX    TMP DP  RH WIND       PRES   REMARKS
Providence     FAIR      59  23  25 N7        30.23F
Block Island   FAIR      52  33  48 SW15      30.26F
Westerly       FAIR      55  30  38 SW12      30.25F

In MA

CITY           SKY/WX    TMP DP  RH WIND       PRES   REMARKS
Boston         FAIR      58  22  24 NW17G28   30.20F
Worcester      FAIR      54  22  28 W10G18    30.20F
Westfield      FAIR      59  17  19 N21G28    30.23F
Provincetown   FAIR      52  25  35 NE5       30.23F
Nantucket      FAIR      51  33  50 SW13      30.26F
$$

ANZ330-335-338-340-345-350-353-355-212000-
Coastal Marine Observations


STATION/POSITION TIME  SKY/WX   TEMP    WIND        PRES    VSBY  WAVE
                                AIR SEA DIR/SP/G                  HT/PER
                 (UTC)          (F)     (DEG/KT/KT) (MB)    (MI)  (FT/S)
NY Harb Entrance 1850            49 44  240/  6/  6 1026.6          1
20 S Fire Island 1850            47 43  250/  6/  6 1026.9          1/ 4
23 SSW Montauk P 1850            44 43  240/ 12/ 14 1026.0          2/ 9
15 E Barnegat Li 1830               45                N/A           1/ 4
Hudson Canyon    1850            44 45  270/ 10/ 10 1027.3          2/ 4
Kings Point      1848            53 45   10/  7/ 10 1026.7
Execution Rocks  NOT AVBL
Western LI Sound NOT AVBL
Central LI Sound 1845            46     240/ 14/ 16   N/A           1
Robbins Reef     1848            56     280/  9/ 14 1026.7
$$


>>>>>>>>>>>>>>>>>>>>>>>>>>>> KEY <<<<<<<<<<<<<<<<<<<<<<<<<<<
>                                                          <
>     SKY/WX - Sky Condition/Present Weather               <
>     TMP    - Temperature in Fahrenheit                   <
>     DP     - Dew Point in Fahrenheit                     <
>     RH     - Relative Humidity in Percent                <
>     WIND   - Direction (from) and Speed in MPH           <
>     PRES   - Mean Sea Level Pressure (inches of Hg)      <
>     WCI    - Wind Chill Index                            <
>     VSB    - Visibility in Miles                         <
>     HX     - Heat Index                                  <
>     TC     - Temperature in Celsius                      <
>     VRB    - Varibale Wind Direction                     <
>                                                          <
>>>>>>>>>>>>>>>>>>>>>>>>>>>> KEY <<<<<<<<<<<<<<<<<<<<<<<<<<<



USA.gov is the U.S. government's official web portal to all federal, state and local government web resources and services.